Date,TemperatureHighF,TemperatureAvgF,TemperatureLowF,DewpointHighF,DewpointAvgF,DewpointLowF,HumidityHigh,HumidityAvg,HumidityLow,PressureMaxIn,PressureMinIn,WindSpeedMaxMPH,WindSpeedAvgMPH,GustSpeedMaxMPH,PrecipitationSumIn
2013-1-1,53.6,51.3,44.7,52.8,49.3,41.2,97,93,73,30.11,29.92,22,3,24,1.28
2013-1-2,44.5,39.1,36.3,43.2,37.1,34.5,96,93,88,30.22,30.03,18,4,18,0.00
2013-1-3,45.3,37.2,31.4,34.5,31.1,26.3,93,79,57,30.40,30.19,14,4,14,0.00
2013-1-4,52.9,38.7,27.2,30.6,25.7,22.1,91,63,31,30.47,30.36,12,3,16,0.00
2013-1-5,49.8,39.7,30.8,39.5,31.2,25.0,96,74,41,30.43,30.28,7,1,7,0.07
2013-1-6,51.3,42.5,37.2,41.3,38.7,33.0,96,87,65,30.32,30.21,12,2,12,0.00
2013-1-7,55.1,42.6,28.0,35.4,32.5,26.2,96,70,42,30.40,30.29,11,2,11,0.01
2013-1-8,59.9,48.8,37.6,48.0,40.2,31.5,84,73,61,30.36,30.24,9,3,9,0.00
2013-1-9,56.8,52.6,48.4,55.7,50.1,44.8,96,91,85,30.39,30.28,10,3,11,0.04
2013-1-10,64.7,59.4,54.6,63.1,58.3,53.6,98,96,89,30.35,30.03,30,4,37,0.19
2013-1-11,65.7,63.8,61.5,64.5,62.4,60.5,98,95,87,30.14,30.06,17,3,17,0.36
2013-1-12,71.3,67.1,64.0,66.2,63.3,59.4,98,88,79,30.10,29.96,17,4,17,0.03
2013-1-13,70.2,64.1,49.0,65.0,61.4,47.6,96,91,81,30.07,29.91,18,6,25,1.38
2013-1-14,49.0,42.6,36.6,47.5,41.7,35.4,98,96,93,30.21,30.05,20,4,20,1.03
2013-1-15,47.6,44.4,40.7,47.1,43.9,39.9,98,98,97,30.12,29.93,10,2,10,0.69
2013-1-16,48.1,43.4,41.3,47.6,42.7,40.2,98,97,95,30.07,29.93,14,3,14,0.16
2013-1-17,43.0,38.3,32.9,42.5,36.8,31.9,98,94,88,30.38,29.88,35,8,35,0.45
2013-1-18,54.3,41.1,30.7,38.8,33.0,29.0,96,75,40,30.58,30.38,13,3,13,0.04
2013-1-19,56.8,41.3,29.6,38.0,31.7,28.0,94,72,36,30.45,30.24,11,2,11,0.00
2013-1-20,65.4,46.7,30.9,43.5,36.8,29.4,96,73,40,30.26,30.13,11,2,11,0.00
2013-1-21,55.0,42.3,31.6,44.4,30.5,19.2,97,67,38,30.25,30.12,17,4,19,0.00
2013-1-22,47.6,36.7,27.1,24.5,20.1,16.6,76,52,35,30.40,30.24,13,3,15,0.00
2013-1-23,54.8,43.4,29.4,44.0,32.0,22.2,83,65,43,30.42,30.22,14,3,14,0.00
2013-1-24,57.3,49.8,39.5,45.6,31.8,20.5,82,53,29,30.33,30.20,14,4,15,0.00
2013-1-25,62.9,51.1,39.4,55.1,39.2,18.6,96,66,43,30.29,30.08,18,4,21,0.12
2013-1-26,60.7,48.8,38.2,47.7,36.0,30.4,96,65,34,30.31,30.15,15,3,15,0.01
2013-1-27,55.4,49.1,44.3,42.3,37.8,34.8,73,65,53,30.38,30.29,11,3,13,0.00
2013-1-28,64.4,53.5,46.2,55.0,47.2,37.9,96,80,63,30.35,30.20,12,3,13,0.00
2013-1-29,68.9,59.5,49.7,64.6,57.4,48.3,98,93,84,30.21,29.82,22,4,23,0.01
2013-1-30,69.9,56.7,37.4,66.3,53.7,28.4,97,90,69,29.97,29.59,31,9,37,1.73
2013-1-31,51.3,40.5,31.5,31.2,28.3,25.3,85,64,37,30.21,29.97,22,6,33,0.00
2013-2-1,43.9,36.7,26.1,32.1,18.8,9.4,79,50,26,30.44,30.19,19,5,20,0.00
2013-2-2,51.5,36.8,22.3,41.2,27.7,17.6,97,73,38,30.39,30.16,13,3,13,0.12
2013-2-3,58.5,45.4,31.7,41.9,32.8,27.6,97,66,33,30.21,30.08,24,5,24,0.01
2013-2-4,51.6,42.5,33.7,35.7,31.8,26.9,84,67,43,30.14,29.99,11,2,11,0.00
2013-2-5,55.4,50.1,42.9,52.5,46.0,35.0,96,86,71,30.06,29.97,11,1,11,0.01
2013-2-6,67.3,53.9,38.8,50.9,40.3,33.6,98,65,31,30.21,30.06,11,2,11,0.01
2013-2-7,52.1,47.8,45.7,47.9,45.0,37.7,97,91,58,30.11,29.91,13,4,13,0.21
2013-2-8,53.3,46.6,33.7,51.5,43.8,31.1,98,90,70,30.26,29.94,19,4,20,0.09
2013-2-9,42.7,33.6,30.6,34.5,30.6,28.4,94,89,71,30.33,30.23,14,2,14,0.00
2013-2-13,44.2,37.7,34.1,39.1,35.2,32.7,96,91,82,30.04,29.94,12,2,21,0.03
2013-2-14,58.2,45.0,34.1,41.6,37.1,32.4,97,76,46,30.13,30.04,13,2,13,0.00
2013-2-15,64.1,47.4,31.1,44.3,36.7,29.6,98,69,40,30.15,30.03,16,4,17,0.00
2013-2-16,44.0,37.7,27.7,35.2,22.0,14.4,72,55,32,30.25,30.05,28,7,28,0.00
2013-2-17,51.4,36.1,20.6,22.4,17.6,12.5,86,51,22,30.35,30.24,15,2,16,0.00
2013-2-18,60.1,46.7,30.3,36.3,28.6,19.1,70,50,35,30.32,29.97,25,5,25,0.00
2013-2-19,57.7,48.3,38.1,47.8,34.4,19.3,97,64,26,30.23,29.96,23,6,23,0.43
2013-2-20,46.9,38.0,26.6,25.8,20.5,10.8,89,52,25,30.27,30.13,16,4,17,0.00
2013-2-21,42.4,35.2,33.6,25.6,23.8,22.1,70,63,46,30.19,30.13,13,3,14,0.00
2013-2-23,60.7,50.4,37.3,53.1,47.0,36.0,98,88,73,29.96,29.86,12,2,13,0.33
2013-2-24,65.2,49.3,31.4,44.9,36.0,30.4,98,65,34,30.07,29.94,11,2,13,0.01
2013-2-25,54.5,47.5,41.2,50.2,41.7,32.7,96,81,58,29.95,29.58,27,6,27,0.70
2013-2-26,49.6,45.9,42.8,47.6,40.3,34.2,97,81,67,29.85,29.50,26,7,26,0.34
2013-2-27,58.9,48.1,38.4,38.4,35.4,32.8,82,63,41,29.95,29.84,31,7,31,0.00
2013-2-28,46.9,39.7,35.7,34.2,30.2,27.3,85,69,51,30.08,29.92,20,7,20,0.00
2013-3-1,43.6,38.3,34.4,32.7,30.0,27.1,84,72,57,30.10,30.03,16,5,16,0.00
2013-3-2,38.6,35.0,31.5,30.9,28.6,26.4,86,77,64,30.16,30.05,20,7,20,0.00
2013-3-3,46.5,35.5,27.6,26.9,21.2,15.7,83,59,30,30.19,30.11,19,6,21,0.00
2013-3-4,61.7,45.1,27.0,46.1,28.7,21.4,84,56,30,30.21,29.97,19,4,19,0.00
2013-3-5,64.8,51.5,37.3,57.8,45.9,29.2,92,81,72,30.04,29.72,43,8,43,0.30
2013-3-6,45.5,36.9,30.7,30.7,26.7,22.4,85,67,54,30.29,30.03,27,8,28,0.00
2013-3-7,59.2,41.1,27.5,33.4,29.9,25.0,91,67,34,30.35,30.26,12,4,13,0.00
2013-3-8,66.0,48.3,31.3,33.5,28.2,10.8,88,53,14,30.37,30.23,12,3,12,0.00
2013-3-9,67.8,55.6,41.0,38.3,32.1,25.6,60,42,30,30.28,30.09,16,4,16,0.00
2013-3-10,74.7,63.4,54.9,51.2,42.5,33.3,67,47,35,30.11,29.93,23,7,25,0.00
2013-3-11,62.1,52.0,39.6,54.0,47.3,36.1,96,85,67,29.96,29.81,26,5,26,0.95
2013-3-12,58.7,45.5,33.4,36.0,32.7,29.8,88,64,36,30.18,29.95,19,6,20,0.00
2013-3-13,56.4,44.7,29.8,32.0,25.9,18.6,94,52,27,30.37,30.17,25,7,25,0.00
2013-3-14,59.7,44.4,29.1,30.3,21.5,14.5,72,44,19,30.45,30.27,13,4,22,0.00
2013-3-15,75.6,55.8,33.0,47.6,38.0,28.1,83,55,32,30.28,29.99,24,5,24,0.00
2013-3-16,76.5,63.9,49.7,47.2,44.1,41.3,79,51,32,30.02,29.88,23,6,25,0.00
2013-3-17,69.6,60.8,51.2,56.0,52.0,45.9,93,74,53,30.00,29.86,16,4,16,0.00
2013-3-18,72.7,59.9,52.6,63.4,56.2,50.9,95,88,60,29.89,29.74,49,5,66,0.09
2013-3-19,64.5,54.0,42.5,52.2,36.8,26.9,91,57,26,30.11,29.89,21,5,21,0.00
2013-3-20,61.3,50.3,41.2,34.2,25.6,19.7,73,39,25,30.17,29.97,27,6,28,0.00
2013-3-21,52.2,41.4,30.8,27.5,20.3,12.7,78,46,22,30.07,29.95,16,4,17,0.00
2013-3-22,49.4,41.7,35.6,44.2,38.1,22.6,95,88,46,30.06,29.95,12,3,12,0.19
2013-3-23,59.1,50.4,44.9,54.2,48.2,43.6,97,92,82,29.98,29.66,28,3,29,1.30
2013-3-24,63.4,52.3,41.3,56.4,47.3,30.3,97,84,62,29.80,29.53,39,8,39,0.42
2013-3-29,70.6,57.2,38.8,43.4,35.9,30.5,74,48,27,30.32,30.15,18,4,18,0.00
2013-3-30,69.7,58.4,47.8,57.2,48.7,39.3,96,72,44,30.17,29.98,12,2,13,0.25
2013-3-31,69.5,60.3,54.8,59.0,56.1,53.4,97,87,65,29.99,29.85,25,4,27,0.05
2013-4-1,73.5,62.5,52.4,57.8,49.8,41.0,96,67,35,30.06,29.87,17,4,17,0.01
2013-4-2,69.8,55.7,47.9,46.9,38.5,30.5,80,54,34,30.19,30.05,15,4,15,0.00
2013-4-3,53.5,47.9,45.4,44.5,35.3,28.0,95,64,42,30.16,30.07,18,6,18,0.41
2013-4-4,46.8,45.3,42.6,45.7,44.1,41.5,96,95,93,30.09,29.95,17,5,18,0.56
2013-4-5,67.0,52.8,41.6,50.3,42.3,38.1,97,72,38,30.11,29.97,19,5,19,0.04
2013-4-6,74.4,57.6,37.9,47.0,39.8,35.7,95,58,25,30.17,30.04,13,3,15,0.00
2013-4-7,75.6,62.5,46.7,53.2,47.8,40.7,85,60,41,30.15,30.01,16,3,18,0.00
2013-4-8,78.3,66.4,55.2,60.5,55.2,50.3,93,69,45,30.09,29.99,17,3,20,0.00
2013-4-9,83.4,71.5,59.4,61.5,58.1,55.6,88,64,43,30.14,30.00,17,3,20,0.00
2013-4-10,84.6,72.7,61.8,63.1,58.6,55.3,83,63,39,30.04,29.84,20,3,20,0.00
2013-4-11,77.0,66.7,59.0,67.8,61.3,56.7,97,83,65,29.87,29.55,24,4,24,1.18
2013-4-12,69.0,56.8,45.5,57.3,45.6,40.2,95,69,37,29.98,29.67,18,6,20,0.00
2013-4-13,77.9,62.4,46.3,47.8,42.9,37.9,89,54,25,30.07,29.96,15,3,15,0.00
2013-4-14,56.9,54.6,52.1,53.9,49.8,42.0,95,84,64,30.04,29.81,20,3,23,0.24
2013-4-15,69.7,62.5,55.5,61.7,58.3,53.5,96,86,74,30.07,29.89,11,1,13,0.00
2013-4-16,81.0,71.5,61.5,69.6,64.8,58.3,93,80,64,30.16,30.06,14,2,15,0.00
2013-4-17,84.7,75.3,66.2,69.8,66.3,63.3,91,75,56,30.16,30.00,14,2,14,0.00
2013-4-18,80.7,73.1,62.3,66.1,62.6,58.9,90,71,49,30.02,29.73,23,5,23,0.00
2013-4-19,72.2,53.6,43.2,66.3,48.2,36.0,95,83,61,30.14,29.69,27,7,35,0.95
2013-4-20,64.8,51.1,34.0,41.7,35.9,29.8,95,60,32,30.27,30.14,18,4,18,0.00
2013-4-21,70.4,56.7,41.0,44.2,39.5,34.2,83,55,31,30.31,30.18,16,4,16,0.00
2013-4-22,72.5,61.5,47.5,53.4,47.9,41.2,81,62,46,30.25,30.09,16,3,17,0.00
2013-4-23,75.1,63.8,52.0,55.2,49.7,42.3,82,62,44,30.17,30.02,14,3,14,0.00
2013-4-24,65.9,58.3,49.1,64.7,54.9,45.7,96,89,77,30.21,30.01,19,3,19,0.19
2013-4-25,68.8,54.8,40.7,45.7,40.2,33.7,93,63,28,30.35,30.20,15,4,15,0.00
2013-4-26,77.2,61.8,39.8,50.1,41.1,34.5,85,51,22,30.36,30.20,12,2,14,0.00
2013-4-27,77.3,67.0,58.3,63.9,56.1,47.8,93,69,48,30.25,30.00,19,3,19,0.02
2013-4-28,69.0,62.8,57.5,65.9,61.1,56.6,97,94,85,30.05,29.93,24,2,24,0.77
2013-4-29,77.5,65.2,55.8,61.8,56.6,50.9,98,77,40,30.03,29.91,9,1,9,0.01
2013-4-30,80.2,66.9,51.1,60.8,56.1,49.0,97,71,41,30.02,29.92,14,1,16,0.00
2013-5-1,71.1,66.2,62.4,62.2,59.2,54.8,89,78,69,30.10,29.99,19,5,23,0.00
2013-5-2,66.5,63.2,59.6,61.3,58.0,54.6,88,83,74,30.12,30.03,19,5,20,0.00
2013-5-3,71.7,64.0,58.8,59.7,57.8,56.1,95,81,61,30.04,29.85,25,6,30,0.56
2013-5-4,58.9,47.3,41.3,57.4,43.9,39.7,96,88,67,29.97,29.85,16,4,16,1.43
2013-5-5,60.2,47.5,36.0,51.5,44.3,35.0,97,89,58,29.91,29.81,19,3,19,0.21
2013-5-6,58.9,50.9,46.9,53.8,48.6,45.4,96,92,81,29.93,29.82,18,3,18,0.44
2013-5-7,72.0,58.0,46.7,56.3,50.8,45.6,98,79,49,30.02,29.90,11,1,12,0.15
2013-5-8,79.2,64.5,47.6,61.5,55.5,46.4,97,75,49,30.08,29.99,12,1,13,0.00
2013-5-9,81.6,68.4,52.3,63.2,57.8,50.6,97,72,44,30.12,30.00,11,1,12,0.00
2013-5-10,72.6,65.2,59.2,61.6,59.0,56.7,94,81,60,30.07,29.92,19,2,19,0.00
2013-5-11,78.8,66.4,57.7,66.8,61.6,55.0,97,86,60,30.00,29.89,23,2,23,0.02
2013-5-12,70.2,59.5,49.1,55.2,45.3,37.2,97,64,32,30.14,29.99,18,4,19,0.01
2013-5-13,72.5,58.4,39.8,48.8,42.1,36.3,92,58,31,30.28,30.13,17,2,17,0.00
2013-5-14,81.8,66.7,46.5,57.7,52.5,44.6,94,64,40,30.24,30.09,14,3,16,0.00
2013-5-15,86.1,71.0,55.1,62.3,57.8,52.7,93,66,36,30.17,30.00,15,2,15,0.00
2013-5-16,81.2,70.9,61.0,63.5,58.8,49.8,93,69,34,30.05,29.95,14,1,15,0.00
2013-5-17,78.0,69.8,65.1,68.6,65.4,60.5,97,87,67,30.05,29.93,16,1,17,2.51
2013-5-18,79.0,72.2,67.2,73.2,69.8,66.3,98,92,80,30.04,29.94,14,2,14,3.54
2013-5-19,82.0,73.1,65.2,73.9,69.6,62.6,97,89,70,30.06,29.96,17,2,18,0.00
2013-5-20,82.7,71.1,61.1,72.3,66.0,59.9,97,85,64,30.08,29.96,9,1,10,0.00
2013-5-21,86.7,75.8,63.4,72.5,67.5,62.0,97,77,53,30.00,29.83,13,2,16,0.00
2013-5-22,83.3,73.1,67.2,71.5,66.8,61.9,94,81,57,29.92,29.83,25,2,30,0.00
2013-5-23,86.0,74.9,61.9,69.3,62.6,58.2,97,69,43,30.02,29.90,19,3,19,0.01
2013-5-24,77.3,67.8,58.6,59.6,54.4,46.9,86,64,35,30.21,30.01,17,5,19,0.00
2013-5-25,82.5,65.6,51.0,58.6,50.9,45.7,88,62,34,30.30,30.17,15,2,15,0.00
2013-5-26,86.0,69.4,52.2,62.3,55.9,49.0,93,66,33,30.24,30.12,8,1,8,0.00
2013-5-27,85.3,71.9,58.2,68.2,62.0,55.5,92,73,42,30.18,30.05,14,2,14,0.00
2013-5-28,85.2,73.7,59.8,67.3,62.9,57.7,94,71,49,30.14,30.03,13,2,14,0.00
2013-5-29,85.7,76.4,63.2,71.3,64.9,58.2,85,68,54,30.14,30.02,15,3,18,0.00
2013-5-30,83.7,76.5,71.1,73.1,67.5,62.8,85,74,60,30.14,30.01,14,4,16,0.00
2013-5-31,84.6,76.9,70.6,71.4,67.9,65.7,86,74,57,30.11,30.01,15,4,19,0.00
2013-6-1,85.1,78.4,69.6,73.6,70.8,65.5,95,78,65,30.02,29.91,16,3,16,0.01
2013-6-2,86.4,76.7,68.9,71.4,68.4,65.5,97,78,53,29.97,29.85,13,2,14,0.01
2013-6-3,85.7,76.1,67.9,71.6,67.2,63.0,94,75,52,29.94,29.85,13,2,13,0.00
2013-6-4,89.3,77.1,63.9,70.1,65.6,59.9,87,69,47,29.99,29.90,10,2,11,0.00
2013-6-5,83.6,71.8,66.2,75.2,68.3,63.8,97,89,74,29.95,29.81,29,2,36,3.17
2013-6-6,81.7,73.8,64.6,73.1,69.2,63.7,98,86,70,29.88,29.71,7,0,7,0.20
2013-6-7,79.2,70.1,65.4,73.3,68.1,64.2,98,94,77,29.87,29.68,20,1,28,0.73
2013-6-8,84.6,72.4,62.9,72.6,67.4,62.1,98,86,56,30.02,29.86,8,0,8,0.01
2013-6-9,82.0,72.9,69.0,74.1,69.8,67.3,97,90,71,30.03,29.90,21,2,25,0.37
2013-6-10,86.6,75.9,67.9,74.2,69.4,66.7,97,82,53,29.99,29.91,13,2,13,0.41
2013-6-11,92.1,81.2,71.9,76.9,73.3,70.3,97,79,54,30.04,29.95,18,3,18,0.00
2013-6-12,94.0,82.7,70.9,78.2,73.5,69.5,97,76,51,30.05,29.95,12,1,14,0.00
2013-6-13,91.4,81.1,69.7,78.1,73.7,68.4,97,80,60,29.96,29.75,22,4,24,0.00
2013-6-14,85.6,75.8,66.1,70.0,64.5,60.2,91,70,45,29.98,29.84,16,3,16,0.00
2013-6-15,88.3,75.4,60.8,71.5,65.4,58.8,95,73,47,30.07,29.97,11,2,12,0.00
2013-6-16,88.6,75.6,65.1,77.1,69.2,62.6,96,82,59,30.09,29.94,22,2,22,1.08
2013-6-17,83.8,74.2,69.5,77.8,71.2,68.0,98,91,70,29.99,29.91,13,1,14,0.02
2013-6-18,82.2,74.4,68.2,75.6,71.0,67.0,97,90,71,29.91,29.84,17,2,19,1.16
2013-6-19,86.4,75.9,67.2,72.0,69.0,66.3,98,81,56,30.03,29.91,11,1,12,0.01
2013-6-20,85.4,76.2,66.9,71.3,68.3,65.1,95,78,58,30.14,30.02,14,2,14,0.00
2013-6-21,85.6,76.3,66.2,71.7,67.9,64.1,94,76,55,30.19,30.08,11,1,13,0.00
2013-6-22,85.9,76.5,67.0,70.9,66.5,62.5,94,73,47,30.18,30.03,11,2,11,0.00
2013-6-23,85.6,75.6,65.0,72.8,68.6,62.9,95,80,60,30.15,30.04,9,1,9,0.00
2013-6-24,82.1,74.5,69.4,75.7,71.5,67.7,96,90,76,30.17,30.06,10,1,10,0.07
2013-6-25,87.0,77.2,68.5,78.0,72.6,67.4,98,87,63,30.13,29.99,10,1,14,0.27
2013-6-26,88.9,79.0,70.4,77.9,73.0,69.1,97,83,61,30.06,29.90,11,2,12,0.01
2013-6-27,92.9,79.7,68.2,80.9,74.4,66.8,97,85,62,29.98,29.80,23,3,27,0.50
2013-6-28,91.4,80.7,72.6,78.7,73.9,71.2,97,82,53,29.84,29.67,17,2,19,0.60
2013-6-29,89.0,78.0,69.6,75.6,69.5,61.8,98,78,42,29.71,29.64,16,2,16,0.01
2013-6-30,89.7,75.4,64.3,70.5,65.7,58.9,97,75,37,29.76,29.67,8,0,11,0.00
2013-7-1,85.1,73.2,64.1,71.5,66.4,62.6,96,81,55,29.88,29.73,9,1,9,0.01
2013-7-2,87.4,74.6,62.3,71.2,66.8,60.8,97,79,53,30.01,29.87,14,1,14,0.00
2013-7-3,80.4,71.6,65.5,73.9,69.0,63.9,98,92,79,30.07,29.99,14,2,19,0.57
2013-7-4,75.4,71.3,69.2,72.4,69.5,67.7,97,94,80,30.06,29.98,19,3,19,0.08
2013-7-5,73.6,71.3,69.2,71.8,69.7,67.7,97,95,91,30.12,30.02,18,3,18,0.01
2013-7-6,73.3,71.0,70.0,72.4,70.1,68.8,98,97,95,30.10,30.03,11,0,12,0.02
2013-7-7,82.6,74.9,70.8,75.7,72.3,70.2,98,92,74,30.13,30.06,8,0,9,0.02
2013-7-8,85.5,74.5,69.5,77.7,72.2,68.3,98,93,73,30.16,30.08,9,1,12,0.04
2013-7-9,91.9,79.5,69.8,78.1,73.8,68.9,98,84,52,30.16,30.03,8,1,8,0.00
2013-7-10,92.4,79.2,69.8,78.7,73.6,68.6,98,84,59,30.07,29.91,18,1,18,0.13
2013-7-11,86.4,76.8,69.1,76.4,72.3,67.9,97,87,68,29.99,29.85,18,1,18,0.10
2013-7-12,89.7,78.9,69.7,76.3,72.0,65.9,98,81,58,29.92,29.84,14,3,14,0.01
2013-7-13,83.6,74.6,66.6,74.2,68.8,63.2,92,82,70,30.01,29.89,15,2,15,0.00
2013-7-14,84.5,76.5,70.5,75.3,71.6,68.4,97,85,67,30.10,29.98,15,3,16,0.08
2013-7-15,79.1,74.3,72.3,72.3,71.0,70.2,95,90,77,30.22,30.10,13,4,14,0.00
2013-7-19,90.1,84.4,73.5,76.0,73.1,70.9,93,70,55,30.09,29.93,9,1,9,0.11
2013-7-20,87.2,77.9,70.4,76.7,72.7,69.0,96,85,64,30.01,29.90,11,1,13,0.00
2013-7-21,88.1,74.8,69.0,77.3,71.8,67.8,97,91,66,30.02,29.91,32,1,33,1.38
2013-7-22,82.3,73.3,68.1,76.3,71.0,67.2,98,93,79,29.99,29.87,16,2,19,0.31
2013-7-23,75.4,70.4,68.4,72.6,69.3,67.5,98,96,88,29.98,29.85,19,1,25,2.12
2013-7-24,87.3,75.3,68.3,76.8,72.1,67.5,98,90,66,29.91,29.81,21,1,22,0.16
2013-7-25,87.4,77.5,69.3,73.1,69.0,64.8,97,77,50,29.99,29.85,13,1,13,0.00
2013-7-26,88.8,76.7,64.1,72.9,68.5,62.9,97,78,52,30.03,29.94,8,1,9,0.00
2013-7-27,83.6,73.8,66.7,73.0,69.0,65.5,97,86,60,29.97,29.88,9,0,9,0.00
2013-7-28,87.7,77.9,69.2,74.7,71.0,67.9,97,80,61,30.03,29.90,9,1,10,0.00
2013-7-29,87.5,75.2,66.5,70.3,66.4,62.8,91,76,49,30.15,30.01,8,1,8,0.00
2013-7-30,91.3,78.3,63.1,76.2,69.1,61.0,95,75,51,30.18,30.05,9,1,9,0.01
2013-7-31,85.1,76.3,68.4,78.0,73.2,66.9,97,90,76,30.10,29.92,17,1,17,3.09
2013-8-1,88.0,77.2,68.6,76.6,71.5,67.4,98,84,59,30.01,29.91,14,2,14,0.52
2013-8-2,90.6,77.2,66.7,73.3,69.5,65.5,97,79,50,30.01,29.93,8,0,8,0.00
2013-8-3,88.5,76.1,65.4,78.0,71.7,64.2,97,87,65,30.05,29.97,14,1,14,0.34
2013-8-4,88.7,78.5,71.5,76.4,73.0,69.0,98,84,64,30.05,29.97,13,2,13,1.20
2013-8-5,87.0,76.7,67.7,74.2,69.7,65.9,96,80,59,30.04,29.95,10,1,10,0.00
2013-8-6,87.8,75.6,70.3,78.6,72.5,68.8,97,90,71,29.99,29.92,22,1,22,0.13
2013-8-7,88.9,76.0,70.2,79.5,73.1,69.0,98,91,68,30.00,29.91,22,1,22,0.22
2013-8-8,88.2,76.4,67.8,79.9,72.6,66.9,98,89,70,30.01,29.92,13,0,14,0.03
2013-8-9,88.9,77.4,69.6,78.5,73.3,68.4,98,88,68,30.05,29.96,11,1,11,0.00
2013-8-10,89.3,79.7,72.0,78.7,74.1,70.9,97,84,64,30.10,30.02,13,1,15,0.00
2013-8-11,92.8,79.2,69.9,77.8,73.6,68.7,98,84,57,30.14,30.04,9,1,10,0.00
2013-8-12,89.6,78.6,71.5,78.8,74.0,69.9,97,86,62,30.09,29.96,18,1,24,1.40
2013-8-13,88.4,77.3,70.8,77.4,73.0,69.9,97,87,65,30.00,29.86,18,1,18,0.02
2013-8-14,81.9,73.8,70.7,72.6,70.3,66.7,97,89,70,29.97,29.89,12,1,12,0.03
2013-8-15,75.0,73.2,71.1,69.7,67.7,65.4,90,83,79,29.99,29.97,16,4,16,0.00
2013-8-16,70.1,67.6,64.9,66.2,64.5,62.5,92,90,86,30.07,30.00,9,1,9,0.00
2013-8-17,68.2,66.3,64.4,65.3,64.2,63.2,97,93,88,30.09,30.01,10,1,11,0.02
2013-8-18,73.1,69.4,65.8,70.6,67.8,64.7,97,95,89,30.14,30.04,8,1,8,0.54
2013-8-19,84.8,75.3,69.0,75.2,71.6,68.1,98,89,69,30.09,29.98,8,1,11,0.01
2013-8-20,85.7,76.4,71.9,76.2,72.7,70.7,97,89,69,30.11,30.02,11,1,12,0.00
2013-8-21,88.4,78.0,70.8,76.4,72.5,69.6,97,84,63,30.17,30.06,9,1,9,0.00
2013-8-22,89.2,79.6,69.6,76.5,72.7,68.4,96,81,57,30.13,30.00,8,0,8,0.00
2013-8-23,87.9,77.7,68.6,77.7,72.9,67.4,98,86,63,30.06,29.96,17,0,22,0.44
2013-8-24,86.5,77.2,70.1,76.6,72.3,67.3,97,86,67,30.18,30.02,17,2,21,0.50
2013-8-25,83.3,75.4,67.8,71.3,68.5,65.3,94,80,63,30.28,30.18,13,2,14,0.00
2013-8-26,82.2,71.6,62.3,66.7,63.5,59.7,95,78,50,30.27,30.16,13,2,15,0.00
2013-8-29,92.2,85.0,73.7,75.7,73.3,71.2,93,70,55,30.03,29.93,10,2,11,0.00
2013-8-30,90.9,78.0,69.0,79.2,73.7,67.5,97,88,63,29.98,29.88,24,0,34,0.07
2013-8-31,95.5,80.6,71.6,78.9,74.1,70.4,98,82,49,29.94,29.83,8,0,9,0.00
2013-9-1,92.6,78.2,70.1,78.7,73.8,68.6,97,87,58,29.91,29.82,24,1,27,0.26
2013-9-2,83.7,74.6,66.9,75.9,71.8,65.7,98,91,74,30.00,29.85,20,1,25,1.52
2013-9-3,89.9,78.6,68.4,77.1,71.8,66.3,98,81,56,29.97,29.87,11,1,11,0.00
2013-9-4,89.4,75.9,63.1,73.1,66.9,61.7,97,76,45,30.08,29.95,8,1,9,0.00
2013-9-5,83.7,68.5,62.4,70.8,65.5,60.7,97,91,61,30.12,30.05,6,0,6,0.00
2013-9-6,87.5,75.3,62.5,75.1,68.3,61.0,97,81,57,30.12,30.01,9,1,9,0.01
2013-9-7,88.7,77.1,67.8,73.6,69.8,66.3,97,80,52,30.09,29.97,6,1,7,0.00
2013-9-8,91.1,77.1,63.4,74.4,69.3,61.8,97,79,50,30.01,29.93,8,0,8,0.01
2013-9-9,90.7,78.2,67.8,76.8,71.8,66.5,97,82,53,30.05,29.96,6,0,7,0.00
2013-9-10,88.8,78.6,71.2,76.5,72.4,69.6,96,82,58,30.16,30.05,8,1,11,0.00
2013-9-11,88.5,77.5,68.5,74.2,69.6,66.9,97,79,50,30.18,30.06,10,1,10,0.01
2013-9-12,90.5,77.3,64.1,73.2,68.2,62.6,97,77,45,30.07,29.90,11,1,12,0.03
2013-9-13,86.1,74.9,65.3,71.8,65.4,54.6,96,74,48,29.92,29.83,17,3,17,0.00
2013-9-14,79.1,67.1,56.4,61.8,55.3,51.2,91,68,42,30.03,29.92,9,2,10,0.00
2013-9-15,87.1,69.6,57.4,68.8,60.8,54.9,96,77,39,30.11,30.03,12,1,12,0.00
2013-9-16,89.1,73.1,60.7,72.4,63.7,58.3,94,75,41,30.13,30.04,10,2,11,0.00
2013-9-17,85.6,72.7,61.6,72.8,65.8,58.6,92,80,61,30.15,30.05,13,3,14,0.00
2013-9-18,82.4,71.9,65.0,69.4,65.2,61.4,89,80,61,30.17,30.06,11,2,12,0.00
2013-9-19,86.2,73.6,63.4,69.0,65.2,61.3,94,77,50,30.15,30.02,8,1,9,0.00
2013-9-20,85.8,74.0,62.2,70.5,66.2,60.3,96,78,55,30.04,29.84,11,2,13,0.02
2013-9-21,73.4,69.9,62.6,72.2,68.1,60.2,97,94,90,29.84,29.73,16,2,19,1.17
2013-9-22,79.5,66.1,53.9,63.5,58.2,52.2,97,77,46,29.87,29.78,13,2,15,0.01
2013-9-23,82.6,70.3,57.3,66.9,61.8,54.4,92,76,53,29.95,29.85,14,2,14,0.00
2013-9-24,71.2,67.9,65.3,68.5,65.9,63.9,96,93,89,29.95,29.74,18,2,18,0.01
2013-9-25,79.1,70.2,65.3,71.6,66.8,64.1,97,89,73,29.85,29.76,11,1,11,0.01
2013-9-26,80.6,70.1,63.1,67.6,64.5,61.7,95,84,61,29.98,29.84,10,1,10,0.00
2013-9-27,80.4,68.2,59.0,66.2,60.5,57.2,98,79,46,30.11,29.98,10,2,10,0.01
2013-9-28,78.0,67.0,56.9,62.1,58.1,54.3,92,75,50,30.18,30.06,13,2,14,0.00
2013-9-29,77.9,65.5,54.3,64.7,58.5,52.2,94,79,52,30.12,29.98,10,1,11,0.00
2013-9-30,77.1,65.6,59.5,63.7,59.8,57.3,94,83,52,30.07,29.96,10,1,10,0.00
2013-10-1,62.0,60.9,59.5,59.9,58.7,57.6,94,92,90,30.03,30.02,5,1,5,0.00
2013-10-6,79.8,72.0,57.1,71.1,68.1,55.1,97,88,73,29.93,29.80,23,2,25,0.63
2013-10-7,72.9,61.2,53.1,57.7,53.1,49.8,96,77,48,30.02,29.87,16,4,16,0.03
2013-10-8,77.1,64.9,52.8,65.1,56.9,48.1,87,76,61,30.08,29.97,15,3,15,0.00
2013-10-9,76.2,66.9,60.6,64.7,59.4,55.0,92,77,59,30.16,30.07,15,2,15,0.00
2013-10-10,81.7,68.1,57.8,66.0,61.2,56.1,96,80,51,30.13,30.00,9,0,9,0.00
2013-10-11,82.9,68.2,56.1,66.0,59.6,54.5,97,77,45,30.07,29.97,12,1,12,0.00
2013-10-12,83.6,67.5,53.5,66.4,59.3,52.1,97,78,46,30.09,30.00,15,1,15,0.01
2013-10-13,82.3,68.7,57.5,64.6,59.4,56.1,97,75,47,30.19,30.09,15,2,16,0.00
2013-10-14,79.2,67.8,58.7,65.9,60.7,56.1,93,79,58,30.19,30.07,10,2,11,0.00
2013-10-15,73.4,64.9,58.4,63.3,60.1,56.7,97,85,61,30.11,30.00,8,1,8,0.00
2013-10-16,72.2,65.6,58.4,66.6,62.4,57.1,97,90,77,30.04,29.93,8,1,9,0.09
2013-10-17,74.7,65.8,58.1,69.1,63.4,54.9,97,92,78,29.97,29.89,14,2,14,0.46
2013-10-18,69.6,58.9,48.3,56.5,52.3,46.9,97,81,53,30.06,29.94,10,1,11,0.00
2013-10-19,69.2,58.6,49.4,59.3,54.5,46.6,97,87,66,30.02,29.93,10,1,13,0.02
2013-10-20,69.2,53.3,41.4,51.5,45.3,40.0,97,78,41,30.09,30.00,10,1,10,0.01
2013-10-21,68.7,54.9,41.1,55.3,48.3,39.3,96,80,48,30.12,30.01,5,1,7,0.01
2013-10-22,75.2,61.7,53.6,55.5,52.8,47.2,96,76,41,30.02,29.87,13,2,15,0.00
2013-10-23,63.0,53.3,41.0,51.6,43.7,38.3,91,72,42,30.12,29.89,19,5,21,0.00
2013-10-24,67.9,49.8,35.3,46.7,41.4,33.8,97,75,42,30.27,30.12,9,1,10,0.00
2013-10-25,56.9,45.1,34.8,42.1,32.1,26.2,87,63,33,30.45,30.27,17,3,17,0.00
2013-10-26,63.7,46.1,30.8,42.3,34.7,28.5,93,69,33,30.35,30.17,10,1,10,0.00
2013-10-27,72.3,56.2,41.3,55.9,48.2,39.0,95,77,48,30.17,30.09,13,1,13,0.08
2013-10-28,68.7,59.3,54.5,61.2,56.7,53.1,97,91,73,30.24,30.12,9,0,9,0.15
2013-10-29,77.8,64.9,55.5,64.6,58.8,54.4,97,82,52,30.30,30.19,13,1,13,0.00
2013-10-30,77.1,65.1,54.9,63.9,58.1,53.4,97,80,53,30.27,30.11,12,1,14,0.00
2013-10-31,73.0,66.1,59.6,67.3,62.2,55.4,95,87,80,30.11,29.75,25,3,25,0.10
2013-11-1,74.5,65.1,50.1,66.8,56.0,47.0,95,75,45,29.86,29.73,23,3,25,0.33
2013-11-2,69.4,55.7,45.2,52.8,44.1,38.7,96,69,37,30.12,29.85,20,4,22,0.00
2013-11-3,63.9,50.9,39.8,45.4,40.6,37.2,94,70,42,30.28,30.12,13,2,15,0.00
2013-11-4,66.3,53.8,40.6,44.6,41.1,37.5,90,65,37,30.38,30.27,19,2,19,0.00
2013-11-5,65.7,54.8,47.0,49.1,42.0,36.8,72,62,49,30.41,30.26,14,3,16,0.00
2013-11-6,72.9,62.3,50.7,61.7,55.4,42.7,89,79,65,30.27,30.05,13,2,15,0.00
2013-11-7,64.8,52.3,40.5,61.2,44.9,32.0,96,77,47,30.29,30.04,25,5,25,0.37
2013-11-8,60.0,47.6,38.7,38.5,34.1,30.2,83,61,36,30.38,30.25,17,2,18,0.00
2013-11-9,60.5,50.4,38.3,45.2,39.3,33.0,85,67,42,30.33,30.21,9,1,12,0.00
2013-11-10,71.9,57.6,49.3,48.9,44.6,39.1,89,65,38,30.32,30.22,11,1,11,0.00
2013-11-11,72.8,55.9,44.4,39.8,34.2,23.3,77,49,16,30.30,30.15,10,2,10,0.00
2013-11-12,57.1,44.0,32.6,45.1,31.6,15.7,90,63,39,30.52,30.16,25,7,29,0.00
2013-11-13,50.8,37.4,28.1,23.4,17.3,10.6,66,46,21,30.64,30.49,14,4,16,0.00
2013-11-14,58.2,42.8,27.6,27.9,22.8,18.8,79,49,22,30.49,30.26,7,2,9,0.00
2013-11-15,58.0,48.9,39.3,52.4,42.6,27.0,96,80,55,30.27,30.10,9,1,9,0.41
2013-11-16,64.4,57.3,49.6,60.8,55.0,48.8,97,92,86,30.18,30.05,10,1,13,0.00
2013-11-17,69.8,65.3,60.3,68.9,63.8,57.7,97,95,88,30.05,29.86,16,4,16,0.04
2013-11-18,70.4,61.5,48.7,69.3,45.3,32.4,97,58,28,30.11,29.90,23,5,29,0.28
2013-11-19,57.4,48.3,40.4,36.1,29.7,25.3,65,50,31,30.18,30.09,19,4,19,0.00
2013-11-20,61.9,50.5,38.2,42.6,36.4,30.2,73,59,45,30.27,30.13,17,3,17,0.00
2013-11-21,63.6,57.1,51.0,55.8,49.0,41.2,84,74,67,30.32,30.22,9,2,11,0.00
2013-11-22,64.1,59.6,55.5,60.2,56.5,51.7,96,90,81,30.28,30.16,10,1,12,0.22
2013-11-23,58.9,47.9,36.0,57.2,41.8,23.3,96,80,57,30.37,30.17,18,7,21,0.00
2013-11-24,42.9,33.2,26.7,23.5,17.0,9.6,77,53,31,30.53,30.37,22,5,22,0.00
2013-11-25,43.8,37.2,29.1,35.7,24.4,12.5,95,61,39,30.45,30.09,15,3,18,0.75
2013-11-26,47.2,40.4,35.8,46.4,39.2,34.5,97,95,93,30.09,29.74,21,6,22,1.93
2013-11-27,39.7,33.6,24.8,35.4,24.1,16.0,94,69,49,30.37,29.86,30,9,30,0.06
2013-11-28,51.1,32.9,18.9,23.9,19.0,15.1,87,60,27,30.51,30.37,7,1,7,0.00
2013-11-29,59.7,40.6,24.2,31.1,24.5,19.5,85,57,26,30.58,30.47,11,2,11,0.00
2013-11-30,57.3,44.4,32.3,33.6,30.3,27.6,83,60,34,30.53,30.30,9,2,9,0.00
2013-12-1,56.6,45.6,35.1,43.2,37.7,30.9,87,75,53,30.31,30.00,6,1,6,0.00
2013-12-2,53.1,49.8,45.9,51.7,48.3,42.2,97,94,84,30.01,29.80,5,0,5,0.14
2013-12-3,60.8,55.3,51.2,60.2,54.4,50.4,98,97,96,29.85,29.78,6,0,6,0.00
2013-12-4,71.5,65.7,60.8,65.6,63.1,60.2,98,92,79,29.97,29.84,14,2,15,0.00
2013-12-5,74.0,68.6,66.0,69.6,67.0,64.6,97,95,83,30.02,29.90,13,2,14,0.25
2013-12-6,75.1,61.7,38.0,69.0,58.9,36.4,96,91,77,30.19,29.90,20,5,22,0.25
2013-12-7,40.0,37.5,34.7,37.3,35.1,33.2,95,91,87,30.38,30.18,16,6,17,0.00
2013-12-8,54.7,46.2,40.0,54.2,45.4,37.0,98,97,89,30.28,30.06,11,1,12,2.13
2013-12-9,54.8,49.9,43.7,54.2,48.4,42.6,98,95,86,30.18,30.01,14,2,14,0.27
2013-12-10,44.2,37.0,29.7,43.4,33.6,27.1,97,88,64,30.39,30.00,21,5,22,0.37
2013-12-11,56.3,39.5,26.3,37.2,30.1,24.6,95,72,40,30.47,30.37,11,2,11,0.01
2013-12-12,46.6,36.0,27.4,27.6,20.3,10.4,86,57,25,30.55,30.40,16,4,16,0.00
2013-12-13,50.3,39.1,27.6,33.6,25.4,18.7,81,59,32,30.41,30.12,8,1,8,0.00
2013-12-14,55.6,49.7,40.5,54.8,47.2,31.6,97,91,67,30.13,29.81,17,3,18,0.66
2013-12-15,40.5,36.1,31.2,38.1,32.2,28.5,91,86,80,30.28,29.97,21,6,21,0.00
2013-12-16,57.9,40.4,27.2,37.6,30.7,26.0,96,72,34,30.34,30.22,16,2,16,0.00
2013-12-17,62.7,48.0,32.4,40.6,36.3,30.3,93,67,40,30.28,30.14,18,4,20,0.00
2013-12-18,58.2,43.4,30.4,33.8,29.2,24.7,90,60,28,30.39,30.27,7,1,12,0.00
2013-12-19,62.3,47.1,31.2,35.9,30.9,26.8,84,56,32,30.33,30.15,12,2,12,0.00
2013-12-20,66.1,57.6,47.4,57.8,48.5,33.2,89,72,55,30.16,30.02,16,2,19,0.00
2013-12-21,72.2,66.5,59.4,67.9,63.7,56.8,97,91,85,30.02,29.78,23,5,23,0.08
2013-12-22,70.9,56.6,53.0,67.5,55.2,52.2,97,95,83,30.10,29.77,38,2,38,1.63
2013-12-23,53.0,42.0,31.4,52.2,38.8,27.1,97,88,79,30.41,30.06,18,6,19,0.05
2013-12-24,40.1,31.8,26.2,27.1,23.8,19.2,89,73,50,30.53,30.40,16,4,19,0.00
2013-12-25,50.6,32.9,22.9,30.3,23.2,18.2,86,69,43,30.48,30.34,9,2,9,0.00
2013-12-26,55.8,40.3,28.1,35.1,29.7,26.1,93,69,37,30.41,30.31,10,2,12,0.00
2013-12-27,53.9,40.5,27.8,32.8,29.2,25.4,92,67,40,30.47,30.35,12,2,12,0.00
2013-12-28,41.3,39.9,38.9,39.3,36.4,30.8,96,87,67,30.39,29.93,18,3,20,1.39
2013-12-29,54.3,45.0,40.1,46.1,42.0,39.0,97,90,68,30.10,29.91,9,1,11,0.07
2013-12-30,46.9,42.4,37.5,43.2,39.7,34.6,97,90,83,30.28,30.09,10,1,10,0.00
2013-12-31,43.9,37.6,31.9,34.8,31.8,28.3,92,81,55,30.46,30.28,13,2,14,0.00
2014-1-1,51.6,40.5,30.2,42.5,35.4,28.1,93,82,63,30.36,30.09,8,1,10,0.00
2014-1-2,50.7,40.0,24.3,49.9,36.6,15.6,97,87,66,30.31,29.87,29,6,29,0.33